TimeEDT,TemperatureF,Dew PointF,Humidity,Sea Level PressureIn,VisibilityMPH,Wind Direction,Wind SpeedMPH,Gust SpeedMPH,PrecipitationIn,Events,Conditions,WindDirDegrees,DateUTC
12:53 AM,66.0,60.1,81,30.21,10.0,WSW,8.1,-,N/A,,Clear,240,2013-08-26 04:53:00
1:53 AM,66.0,60.1,81,30.20,10.0,SW,5.8,-,N/A,,Clear,230,2013-08-26 05:53:00
2:53 AM,66.0,61.0,84,30.19,10.0,WSW,6.9,-,N/A,,Clear,240,2013-08-26 06:53:00
3:53 AM,64.9,61.0,87,30.16,10.0,SW,4.6,-,N/A,,Clear,220,2013-08-26 07:53:00
4:53 AM,64.0,60.1,87,30.15,10.0,SW,4.6,-,N/A,,Clear,220,2013-08-26 08:53:00
5:53 AM,64.9,61.0,87,30.14,10.0,SW,4.6,-,N/A,,Clear,220,2013-08-26 09:53:00
6:53 AM,66.9,61.0,81,30.12,10.0,SW,6.9,-,N/A,,Clear,220,2013-08-26 10:53:00
7:53 AM,69.1,61.0,75,30.11,10.0,SW,6.9,-,N/A,,Partly Cloudy,230,2013-08-26 11:53:00
8:53 AM,70.0,60.1,71,30.11,10.0,WSW,9.2,-,N/A,,Overcast,240,2013-08-26 12:53:00
9:53 AM,71.1,60.1,68,30.10,10.0,WSW,8.1,-,N/A,,Overcast,240,2013-08-26 13:53:00
10:53 AM,72.0,61.0,68,30.07,10.0,SSW,10.4,-,N/A,,Overcast,210,2013-08-26 14:53:00
1:53 PM,77.0,63.0,62,30.00,10.0,SW,11.5,-,N/A,,Partly Cloudy,230,2013-08-26 17:53:00
2:53 PM,77.0,64.0,64,29.97,10.0,SW,10.4,-,N/A,,Partly Cloudy,230,2013-08-26 18:53:00
3:53 PM,77.0,64.0,64,29.95,10.0,SW,9.2,19.6,N/A,,Clear,230,2013-08-26 19:53:00
4:53 PM,75.0,64.9,71,29.94,10.0,SW,9.2,-,N/A,,Clear,220,2013-08-26 20:53:00
5:53 PM,73.9,64.9,73,29.93,10.0,SW,9.2,-,N/A,,Scattered Clouds,220,2013-08-26 21:53:00
6:53 PM,72.0,64.9,78,29.93,10.0,SW,6.9,-,N/A,,Clear,230,2013-08-26 22:53:00
7:53 PM,72.0,64.9,78,29.92,10.0,WSW,9.2,-,N/A,,Mostly Cloudy,240,2013-08-26 23:53:00
8:53 PM,71.1,64.9,81,29.92,10.0,SW,6.9,-,N/A,,Mostly Cloudy,230,2013-08-27 00:53:00
9:53 PM,71.1,64.9,81,29.92,10.0,WSW,9.2,-,N/A,,Overcast,250,2013-08-27 01:53:00
10:53 PM,71.1,66.9,87,29.91,10.0,WSW,11.5,-,0.00,Rain,Light Rain,250,2013-08-27 02:53:00
11:37 PM,69.8,68.0,94,29.91,2.0,WSW,10.4,-,0.13,Rain,Heavy Rain,250,2013-08-27 03:37:00
11:49 PM,69.8,68.0,94,29.90,3.0,WSW,10.4,-,0.17,Rain,Rain,250,2013-08-27 03:49:00
11:53 PM,70.0,68.0,93,29.91,3.0,WSW,10.4,-,0.18,Rain,Heavy Rain,240,2013-08-27 03:53:00